Location: Fort Wayne
(41.1310°N, 85.1290°W)
Time: 23:56:51
(UTC-04:00)

Cosmos 1000 Rocket - Visible Passes

Search period start: 30 May 2016 00:00
Search period end: 09 June 2016 00:00
Orbit: 954 x 992 km, 82.9° (Epoch: 30 May)

Date Brightness Start Highest point End Pass type
(mag) Time Alt. Az. Time Alt. Az. Time Alt. Az.
01 Jun 7.4 05:05:55 10° NNE 05:09:20 15° ENE 05:12:44 10° E visible
02 Jun 6.9 05:29:21 10° NNE 05:34:30 27° ENE 05:39:34 10° SE visible
04 Jun 7.5 04:35:34 10° NE 04:37:53 12° ENE 04:40:12 10° E visible
05 Jun 7.1 04:58:26 10° NNE 05:03:07 22° ENE 05:07:45 10° ESE visible
06 Jun 6.1 05:22:24 10° N 05:28:08 39° ENE 05:33:48 10° SE visible
08 Jun 7.1 04:27:36 10° NNE 04:31:43 18° ENE 04:35:48 10° ESE visible
